Location: Santa Clara
(37.3540°N, 121.9540°W)
Time: 16:37:17
(UTC-07:00)

X-37B - Pass Details

Date: 30 January 2022
Orbit: 329 x 342 km, 45.0° (Epoch: 18 May)

Event Time Altitude Azimuth Distance (km) Brightness Sun altitude
Rises 18:08:36 0° 270° (W) 2,116 6.1 -8.0°
Reaches altitude 10° 18:10:48 10° 283° (WNW) 1,277 4.3 -8.5°
Maximum altitude 18:13:17 26° 344° (NNW) 709 1.9 -8.9°
Enters shadow 18:15:38 11° 43° (NE) 1,231 2.6 -9.4°
